Showing default

CENTISPACE-1 S15, 62584

Orbit data source: Space-Track

CENTISPACE-1 S15, 62584 is a payload satellite owned by Centispace (CN) in LEO that was launched on Mon, 13 Jan 2025 UTC via a JIELONG-3 launch vehicle from the Yellow Sea Launch Area, China (YSLA). Payload-class satellites include a variety of spacecraft equipped with specific instruments for various scientific and technological missions. These include communications satellites like Starlink; space stations such as the ISS; scientific satellites like the Hubble; Earth observation satellites from companies like Planet Labs, Umbra, and HawkEye 360; GPS; miniature CubeSats for education and research; and military/defense satellites.

Loading next visibility...
Identifier
62584, 2025-007K
Orbit
LEO
Country
Flag of CNCN / PRC
Related business
Manufacturer
HITSAT
Mission
Operational Commercial Nav/Com
Bus & Motor
WK01H, Unknown motor
Mass
140 kg wet, 140 kg dry
Launch date (UTC)
2025-01-13 (11 months ago)
Launch vehicle
JIELONG-3
Launch site
Yellow Sea Launch Area, China (YSLA)
Object type
Payload
Rocket body
Debris
Shape & HBR
Box + 2 Pan, 1.0 m
Radar Cross Section
0.833 m², Large (>1 m²)

Expand to show TLE details & history
Last TLE update: 7 hours ago

TLE from 7 hours ago
0 CENTISPACE-1 S15
1 62584U 25007K   25351.92479352  .00000111  00000-0  13195-3 0  9991
2 62584  54.9827 216.1758 0009790 275.4688  84.5168 14.16734577 49535
Epoch: 2025-12-17T22:11Z
TLE epoch observation values (Epoch: 2025-12-17T22:11:42.160Z)
Latitude
-0.00001°
Longitude
156.46246°
Altitude
836.789 km
Speed
7.436 km/s
True Right ascension
14h 24m 42s
True Declination
0° 00' 00"
Sunlit
Object was in daylight at epoch
Visualization orbit readout
Latitude
Unknown
Longitude
Unknown
Altitude
Unknown
Speed
Unknown
Apparent Right ascension
Unknown
Apparent Declination
Unknown
Sunlit
N/A
Visualization observer readout
Local Sidereal Time
04:13:51
Azimuth
Unknown
Elevation
Unknown
Doppler factor
Unknown
Orbital elements
Apogee altitude
843.448 km
Perigee altitude
829.322 km
Semi-major axis
7,214.522 km
Eccentricity
0.00098
Inclination
54.9827°
RAAN
216.1758°
Arg. of periapsis
275.4688°
True anomaly
84.62848°
Mean anomaly
84.5168°
Eccentric anomaly
84.57264°
Mean motion
3.54186 °/min
Orbital period
101.64 mins
BSTAR
0.00013195
Loading maneuver chart data...
Computing Atmospheric mass density...
Loading historical data...
Loading historical data...
Loading historical data...
Loading historical data...
Loading historical data...
Loading historical data...
Loading historical data...

Documentation

Showing up to 5 results
|